User: anonymous   Login
Location: Chervonnoye
(48.6000°N, 34.4000°E)
Time: 19:58:35
(UTC+00:00)
Language:

Okean-O - Orbit

View from above orbital plane
View from above orbital plane
View from above satellite
View from above satellite

Ground track
Ground track

The orbit data is extracted from the following two-line orbital elements,

1 25860U 99039A   21136.14291162  .00000049  00000-0  14589-4 0  9994
2 25860  98.1853 166.4460 0000914 106.0860 254.0450 14.76732471174610
Epoch (UTC): 16 May 2021 03:25:47
Eccentricity: 0.0000914
inclination: 98.1853°
perigee height: 639 km
apogee height: 640 km
right ascension of ascending node: 166.4460°
argument of perigee: 106.0860°
revolutions per day: 14.76732471
mean anomaly at epoch: 254.0450°
orbit number at epoch: 17461

The dashed part of the orbit path shows where the satellite is in the earth's shadow,  

DLR